#timestamp,LO_Frequency,Hit,StdDev 
1681819215.6,286046998.1,N
1681819235.5,286047000.6,N
1681819255.3,286046999.7,N
1681819275.1,286047002.8,N
1681819295.9,286047000.4,N
1681819315.7,286046999.9,N
1681819335.6,286046999.7,N
1681819355.4,286047002.4,N
1681819375.2,286047002.0,N
1681819395.1,286047002.6,N
1681819396.0,286047002.6,N
1681819415.8,286047001.3,N
1681819435.6,286047001.4,N
1681819455.5,286047001.6,N
1681819475.3,286047001.4,N
1681819495.2,286047004.1,N
1681819515.9,286047001.6,N
1681819535.7,286047002.1,N
1681819555.6,286047002.4,N
1681819575.4,286047001.9,N
1681819595.2,286046999.7,N
1681819615.1,286047002.8,N
1681819616.0,286047002.8,N
1681819635.8,286047001.7,N
1681819655.7,286047003.5,N
1681819675.5,286047004.3,N
1681819695.3,286047002.8,N
1681819715.2,286047000.3,N
1681819735.0,286047000.1,N
1681819735.9,286047000.1,N
1681819755.7,286047002.7,N
1681819775.6,286046999.7,N
1681819795.4,286046999.7,N
1681819815.3,286047000.1,N
1681819835.1,286047002.4,N
1681819836.0,286047002.4,N
1681819855.8,286047000.2,N
1681819875.7,286047000.4,N
1681819895.5,286047002.8,N
1681819915.3,286047000.2,N
1681819935.2,286047000.1,N
1681819955.0,286047000.3,N
1681819955.9,286047000.3,N
1681819975.8,286047000.1,N
1681819995.6,286046999.9,N
1681820015.4,286047002.3,N
1681820035.3,286047002.2,N
1681820055.1,286047002.3,N
1681820075.8,286047002.3,N
1681820095.7,286047004.2,Y
1681820115.5,286047000.5,P
1681820135.4,286046999.8,N
1681820155.2,286047001.0,N
1681820175.0,286047001.2,N
1681820175.9,286047001.2,N
1681820195.8,286046999.9,N
1681820215.6,286047000.8,N
1681820235.4,286047001.1,N
1681820255.3,286047000.3,N
1681820275.1,286047002.8,Y
1681820295.9,286046999.8,P
1681820315.7,286047002.7,P
1681820335.5,286047002.7,N
1681820355.4,286047000.2,N
1681820375.2,286047002.0,N
1681820395.0,286047001.8,N
1681820395.9,286047001.8,N
1681820415.8,286047003.6,Y
1681820435.6,286047004.2,P
1681820455.5,286047002.8,N
1681820475.3,286046999.8,N
1681820495.1,286047000.2,N
1681820515.9,286047000.6,N
1681820535.7,286047000.4,N
1681820555.5,286047000.1,N
1681820575.4,286047001.9,N
1681820595.2,286047000.3,N
1681820615.0,286046999.9,N
1681820616.0,286046999.9,N
1681820635.8,286047001.0,N
1681820655.6,286046998.3,N
1681820675.5,286046998.4,N
1681820695.3,286046999.1,N
1681820715.1,286046998.3,N
1681820735.9,286046998.2,N
1681820755.7,286046998.8,N
1681820775.5,286046998.8,N
1681820795.4,286046999.5,N
1681820815.2,286047001.1,N
1681820835.1,286046998.8,N
1681820836.0,286046998.8,N
1681820855.8,286046999.1,N
1681820875.6,286046999.6,N
1681820895.5,286046996.8,N
1681820915.3,286046997.8,N
1681820935.1,286046997.5,N
1681820955.9,286046997.6,N
1681820975.7,286046997.1,N
1681820995.6,286046997.4,N
1681821015.4,286046997.1,N
1681821035.2,286046997.2,N
1681821055.1,286046996.6,N
1681821056.0,286046996.6,N
1681821075.8,286046998.0,N
1681821095.6,286046997.1,N
1681821115.5,286046997.2,N
1681821135.3,286046997.3,N
1681821155.2,286046997.8,N
1681821175.9,286046995.1,Y
1681821195.7,286046996.7,P
1681821215.6,286046996.5,P
1681821235.4,286046999.0,N
1681821255.2,286046998.6,N
1681821275.1,286046998.9,N
1681821276.0,286046998.9,N
1681821295.8,286046998.5,N
1681821315.7,286046999.3,N
1681821335.5,286046999.1,N
1681821355.3,286046998.7,N
1681821375.2,286046998.5,N
1681821395.0,286047001.2,N
1681821395.9,286047001.2,N
1681821415.8,286047001.0,N
1681821435.6,286047000.7,N
1681821455.4,286046999.3,N
1681821475.3,286046999.3,N
1681821495.1,286046999.3,N
1681821515.8,286046999.3,N
1681821535.7,286046999.2,N
1681821555.5,286046997.7,N
1681821575.3,286046997.6,N
1681821595.2,286046996.5,N
1681821615.0,286046996.7,N
1681821615.9,286046996.7,N
1681821635.8,286046996.5,N
1681821655.6,286046998.8,N
1681821675.4,286046999.0,N
1681821695.3,286046998.8,N
1681821715.1,286046997.0,N
1681821735.8,286046997.0,N
1681821755.7,286046997.6,N
1681821775.5,286046995.2,Y
1681821795.4,286046997.4,P
1681821815.2,286046995.8,P
1681821835.0,286046996.0,P
1681821835.9,286046996.0,Y
1681821855.8,286046996.8,P
1681821875.6,286046995.7,P
1681821895.5,286046996.1,P
1681821915.3,286046995.8,Y
1681821935.1,286046999.0,P
1681821955.9,286047001.2,N
1681821975.7,286047002.3,N
1681821995.5,286047001.3,N
1681822015.4,286047001.7,N
1681822035.2,286047002.3,N
1681822055.1,286046999.7,N
1681822056.0,286046999.7,N
1681822075.8,286047001.0,N
1681822095.6,286046998.2,N
1681822115.5,286047002.6,N
1681822135.3,286047001.1,N
1681822155.1,286047000.9,N
1681822175.9,286047000.2,N
1681822195.7,286047002.5,N
1681822215.6,286046999.9,N
1681822235.4,286047000.9,N
1681822255.2,286046999.1,N
1681822275.1,286046998.7,N
1681822276.0,286046998.7,N
1681822295.8,286046998.8,N
1681822315.6,286046999.6,N
1681822335.5,286046997.0,N
1681822355.3,286046998.9,N
1681822375.2,286046996.8,N
1681822395.9,286046997.9,N
1681822415.7,286046995.0,N
1681822435.6,286046997.3,N
1681822455.4,286046997.2,N
1681822475.2,286046997.5,N
1681822495.1,286046997.8,N
1681822496.0,286046997.8,N
1681822515.8,286046999.2,N
1681822535.7,286046996.6,N
1681822555.5,286046999.6,N
1681822575.3,286046999.5,N
1681822595.2,286046999.4,N
1681822615.9,286046999.6,N
1681822635.7,286046997.3,N
1681822655.6,286046999.2,N
1681822675.4,286046996.6,N
1681822695.3,286046998.0,N
1681822715.1,286046995.0,Y
1681822716.0,286046995.0,P
1681822735.8,286046998.0,N
1681822755.7,286046999.4,N
1681822775.5,286046996.8,N
1681822795.3,286046996.8,N
